Time,TemperatureF,DewpointF,PressureIn,WindDirection,WindDirectionDegrees,WindSpeedMPH,WindSpeedGustMPH,Humidity,HourlyPrecipIn,Conditions,Clouds,dailyrainin,SoftwareType,DateUTC
2013-03-10 00:02:00,43.3,40.3,30.24,SE,146,0.0,0.0,89,0.00,,,0.00,Wunderground v.1.15,2013-03-10 08:02:00,
2013-03-10 00:08:00,43.6,41.1,30.24,SE,136,1.0,2.0,91,0.00,,,0.00,Wunderground v.1.15,2013-03-10 08:08:00,
2013-03-10 00:14:00,43.5,40.2,30.24,SE,137,1.0,1.0,88,0.00,,,0.00,Wunderground v.1.15,2013-03-10 08:14:00,
2013-03-10 00:20:00,42.9,39.6,30.25,SE,136,0.0,0.0,88,0.00,,,0.00,Wunderground v.1.15,2013-03-10 08:20:00,
2013-03-10 00:26:00,42.7,39.4,30.25,SE,142,0.0,0.0,88,0.00,,,0.00,Wunderground v.1.15,2013-03-10 08:26:00,
2013-03-10 00:32:00,42.5,39.5,30.25,SE,142,0.0,2.0,89,0.00,,,0.00,Wunderground v.1.15,2013-03-10 08:32:00,
2013-03-10 00:38:00,42.4,39.7,30.25,SE,142,0.0,2.0,90,0.00,,,0.00,Wunderground v.1.15,2013-03-10 08:38:00,
2013-03-10 00:44:00,42.4,39.4,30.25,SE,142,0.0,2.0,89,0.00,,,0.00,Wunderground v.1.15,2013-03-10 08:44:00,
2013-03-10 00:50:00,41.9,38.9,30.25,SSW,195,0.0,2.0,89,0.00,,,0.00,Wunderground v.1.15,2013-03-10 08:50:00,
2013-03-10 00:56:00,41.9,39.2,30.25,SSW,194,0.0,2.0,90,0.00,,,0.00,Wunderground v.1.15,2013-03-10 08:56:00,
2013-03-10 01:02:00,41.6,38.6,30.25,SSW,194,0.0,0.0,89,0.00,,,0.00,Wunderground v.1.15,2013-03-10 09:02:00,
2013-03-10 01:08:00,41.4,38.7,30.25,SSE,160,0.0,0.0,90,0.00,,,0.00,Wunderground v.1.15,2013-03-10 09:08:00,
2013-03-10 01:14:00,41.2,38.5,30.25,SE,146,0.0,0.0,90,0.00,,,0.00,Wunderground v.1.15,2013-03-10 09:14:00,
2013-03-10 01:20:00,41.2,38.5,30.25,ESE,104,0.0,0.0,90,0.00,,,0.00,Wunderground v.1.15,2013-03-10 09:20:00,
2013-03-10 01:26:00,40.9,38.2,30.25,ESE,104,0.0,0.0,90,0.00,,,0.00,Wunderground v.1.15,2013-03-10 09:26:00,
2013-03-10 01:32:00,41.0,38.6,30.25,ESE,104,0.0,2.0,91,0.00,,,0.00,Wunderground v.1.15,2013-03-10 09:32:00,
2013-03-10 01:38:00,41.5,39.1,30.26,ESE,104,0.0,2.0,91,0.00,,,0.00,Wunderground v.1.15,2013-03-10 09:38:00,
2013-03-10 01:44:00,41.1,38.4,30.25,ESE,104,0.0,2.0,90,0.00,,,0.00,Wunderground v.1.15,2013-03-10 09:44:00,
2013-03-10 01:50:00,41.2,38.8,30.25,ESE,104,0.0,2.0,91,0.00,,,0.00,Wunderground v.1.15,2013-03-10 09:50:00,
2013-03-10 01:56:00,40.9,38.2,30.25,SSE,166,0.0,2.0,90,0.00,,,0.00,Wunderground v.1.15,2013-03-10 09:56:00,
2013-03-10 03:02:00,40.9,38.5,30.25,SE,127,0.0,0.0,91,0.00,,,0.00,Wunderground v.1.15,2013-03-10 10:02:00,
2013-03-10 03:08:00,40.8,38.4,30.25,SE,127,0.0,0.0,91,0.00,,,0.00,Wunderground v.1.15,2013-03-10 10:08:00,
2013-03-10 03:14:00,40.7,38.3,30.24,ESE,105,0.0,0.0,91,0.00,,,0.00,Wunderground v.1.15,2013-03-10 10:14:00,
2013-03-10 03:20:00,40.5,38.1,30.24,ESE,105,0.0,0.0,91,0.00,,,0.00,Wunderground v.1.15,2013-03-10 10:20:00,
2013-03-10 03:26:00,40.5,38.1,30.24,ESE,105,0.0,0.0,91,0.00,,,0.00,Wunderground v.1.15,2013-03-10 10:26:00,
2013-03-10 03:32:00,40.8,38.4,30.24,ESE,105,0.0,0.0,91,0.00,,,0.00,Wunderground v.1.15,2013-03-10 10:32:00,
2013-03-10 03:38:00,40.7,38.3,30.24,ESE,106,0.0,0.0,91,0.00,,,0.00,Wunderground v.1.15,2013-03-10 10:38:00,
2013-03-10 03:44:00,40.8,38.4,30.24,ESE,106,0.0,0.0,91,0.00,,,0.00,Wunderground v.1.15,2013-03-10 10:44:00,
2013-03-10 03:50:00,40.6,37.9,30.23,ESE,108,0.0,0.0,90,0.00,,,0.00,Wunderground v.1.15,2013-03-10 10:50:00,
2013-03-10 03:56:00,40.5,37.8,30.24,ESE,108,0.0,0.0,90,0.00,,,0.00,Wunderground v.1.15,2013-03-10 10:56:00,
2013-03-10 04:02:00,40.4,38.0,30.24,ESE,104,0.0,0.0,91,0.00,,,0.00,Wunderground v.1.15,2013-03-10 11:02:00,
2013-03-10 04:08:00,41.6,38.9,30.24,ESE,102,0.0,0.0,90,0.00,,,0.00,Wunderground v.1.15,2013-03-10 11:08:00,
2013-03-10 04:14:00,42.4,39.1,30.24,ESE,102,0.0,0.0,88,0.00,,,0.00,Wunderground v.1.15,2013-03-10 11:14:00,
2013-03-10 04:20:00,42.1,37.9,30.24,ESE,102,0.0,0.0,85,0.00,,,0.00,Wunderground v.1.15,2013-03-10 11:20:00,
2013-03-10 04:26:00,42.0,38.1,30.24,East,101,0.0,0.0,86,0.00,,,0.00,Wunderground v.1.15,2013-03-10 11:26:00,
2013-03-10 04:32:00,41.9,37.7,30.24,East,101,0.0,0.0,85,0.00,,,0.00,Wunderground v.1.15,2013-03-10 11:32:00,
2013-03-10 04:38:00,41.5,37.0,30.24,ESE,102,0.0,0.0,84,0.00,,,0.00,Wunderground v.1.15,2013-03-10 11:38:00,
2013-03-10 04:44:00,41.2,37.3,30.25,ESE,103,0.0,0.0,86,0.00,,,0.00,Wunderground v.1.15,2013-03-10 11:44:00,
2013-03-10 04:50:00,41.0,36.8,30.25,ESE,103,0.0,0.0,85,0.00,,,0.00,Wunderground v.1.15,2013-03-10 11:50:00,
2013-03-10 04:56:00,41.5,37.9,30.25,ESE,103,0.0,0.0,87,0.00,,,0.00,Wunderground v.1.15,2013-03-10 11:56:00,
2013-03-10 05:02:00,42.3,38.1,30.25,ESE,103,0.0,0.0,85,0.00,,,0.00,Wunderground v.1.15,2013-03-10 12:02:00,
2013-03-10 05:08:00,42.5,37.4,30.25,ESE,103,0.0,0.0,82,0.00,,,0.00,Wunderground v.1.15,2013-03-10 12:08:00,
2013-03-10 05:14:00,42.4,37.0,30.25,ESE,103,0.0,0.0,81,0.00,,,0.00,Wunderground v.1.15,2013-03-10 12:14:00,
2013-03-10 05:20:00,42.0,36.9,30.26,ESE,104,0.0,0.0,82,0.00,,,0.00,Wunderground v.1.15,2013-03-10 12:20:00,
2013-03-10 05:26:00,42.2,37.1,30.26,SSE,150,0.0,1.0,82,0.00,,,0.00,Wunderground v.1.15,2013-03-10 12:26:00,
2013-03-10 05:32:00,42.5,36.8,30.26,SE,142,0.0,2.0,80,0.00,,,0.00,Wunderground v.1.15,2013-03-10 12:32:00,
2013-03-10 05:38:00,43.5,36.8,30.26,SSE,156,1.0,2.0,77,0.00,,,0.00,Wunderground v.1.15,2013-03-10 12:38:00,
2013-03-10 05:44:00,43.9,36.5,30.26,SSE,158,0.0,1.0,75,0.00,,,0.00,Wunderground v.1.15,2013-03-10 12:44:00,
2013-03-10 05:50:00,44.4,35.9,30.26,WSW,240,0.0,0.0,72,0.00,,,0.00,Wunderground v.1.15,2013-03-10 12:50:00,
2013-03-10 05:56:00,44.2,35.4,30.26,WSW,240,0.0,0.0,71,0.00,,,0.00,Wunderground v.1.15,2013-03-10 12:56:00,
2013-03-10 06:02:00,44.0,35.2,30.26,WSW,240,0.0,0.0,71,0.00,,,0.00,Wunderground v.1.15,2013-03-10 13:02:00,
2013-03-10 06:08:00,43.5,35.8,30.27,SE,127,0.0,0.0,74,0.00,,,0.00,Wunderground v.1.15,2013-03-10 13:08:00,
2013-03-10 06:14:00,42.9,34.8,30.27,SE,128,0.0,0.0,73,0.00,,,0.00,Wunderground v.1.15,2013-03-10 13:14:00,
2013-03-10 06:20:00,42.0,35.0,30.27,SE,128,0.0,0.0,76,0.00,,,0.00,Wunderground v.1.15,2013-03-10 13:20:00,
2013-03-10 06:26:00,41.6,35.6,30.27,SE,128,0.0,0.0,79,0.00,,,0.00,Wunderground v.1.15,2013-03-10 13:26:00,
2013-03-10 06:32:00,41.3,35.6,30.26,SE,129,0.0,1.0,80,0.00,,,0.00,Wunderground v.1.15,2013-03-10 13:32:00,
2013-03-10 06:38:00,41.3,35.9,30.26,SE,128,0.0,1.0,81,0.00,,,0.00,Wunderground v.1.15,2013-03-10 13:38:00,
2013-03-10 06:44:00,41.7,36.3,30.26,ESE,121,0.0,1.0,81,0.00,,,0.00,Wunderground v.1.15,2013-03-10 13:44:00,
2013-03-10 06:50:00,42.0,36.6,30.27,ESE,120,0.0,1.0,81,0.00,,,0.00,Wunderground v.1.15,2013-03-10 13:50:00,
2013-03-10 06:56:00,42.4,36.7,30.26,ESE,102,0.0,1.0,80,0.00,,,0.00,Wunderground v.1.15,2013-03-10 13:56:00,
2013-03-10 07:02:00,42.2,36.5,30.27,ESE,107,0.0,0.0,80,0.00,,,0.00,Wunderground v.1.15,2013-03-10 14:02:00,
2013-03-10 07:08:00,42.0,36.3,30.27,South,189,0.0,0.0,80,0.00,,,0.00,Wunderground v.1.15,2013-03-10 14:08:00,
2013-03-10 07:14:00,41.5,36.1,30.27,ESE,121,0.0,0.0,81,0.00,,,0.00,Wunderground v.1.15,2013-03-10 14:14:00,
2013-03-10 07:20:00,42.2,36.2,30.27,ESE,121,0.0,0.0,79,0.00,,,0.00,Wunderground v.1.15,2013-03-10 14:20:00,
2013-03-10 07:26:00,42.1,35.7,30.27,ESE,122,0.0,0.0,78,0.00,,,0.00,Wunderground v.1.15,2013-03-10 14:26:00,
2013-03-10 07:32:00,42.8,35.8,30.27,SE,135,0.0,0.0,76,0.00,,,0.00,Wunderground v.1.15,2013-03-10 14:32:00,
2013-03-10 07:38:00,43.1,35.0,30.28,ESE,104,0.0,0.0,73,0.00,,,0.00,Wunderground v.1.15,2013-03-10 14:38:00,
2013-03-10 07:44:00,42.8,34.7,30.28,ESE,104,0.0,0.0,73,0.00,,,0.00,Wunderground v.1.15,2013-03-10 14:44:00,
2013-03-10 07:50:00,42.7,35.0,30.29,ESE,104,0.0,0.0,74,0.00,,,0.00,Wunderground v.1.15,2013-03-10 14:50:00,
2013-03-10 07:56:00,42.4,35.0,30.28,ESE,104,0.0,0.0,75,0.00,,,0.00,Wunderground v.1.15,2013-03-10 14:56:00,
2013-03-10 08:02:00,42.3,35.3,30.29,WSW,245,0.0,0.0,76,0.00,,,0.00,Wunderground v.1.15,2013-03-10 15:02:00,
2013-03-10 08:08:00,43.1,35.0,30.29,SSE,157,0.0,0.0,73,0.00,,,0.00,Wunderground v.1.15,2013-03-10 15:08:00,
2013-03-10 08:14:00,45.8,34.3,30.29,East,82,0.0,1.0,64,0.00,,,0.00,Wunderground v.1.15,2013-03-10 15:14:00,
2013-03-10 08:20:00,48.8,33.3,30.29,NE,46,1.0,1.0,55,0.00,,,0.00,Wunderground v.1.15,2013-03-10 15:20:00,
2013-03-10 08:26:00,52.8,30.9,30.29,NNE,19,1.0,2.0,43,0.00,,,0.00,Wunderground v.1.15,2013-03-10 15:26:00,
2013-03-10 08:32:00,54.9,30.4,30.29,East,82,1.0,2.0,39,0.00,,,0.00,Wunderground v.1.15,2013-03-10 15:32:00,
2013-03-10 08:38:00,56.7,28.6,30.30,NNW,331,2.0,2.0,34,0.00,,,0.00,Wunderground v.1.15,2013-03-10 15:38:00,
2013-03-10 08:44:00,57.9,29.7,30.30,NNW,331,1.0,2.0,34,0.00,,,0.00,Wunderground v.1.15,2013-03-10 15:44:00,
2013-03-10 08:50:00,58.6,29.6,30.30,NW,316,1.0,2.0,33,0.00,,,0.00,Wunderground v.1.15,2013-03-10 15:50:00,
2013-03-10 08:56:00,59.3,28.6,30.30,NE,53,1.0,5.0,31,0.00,,,0.00,Wunderground v.1.15,2013-03-10 15:56:00,
2013-03-10 09:02:00,59.8,29.1,30.31,NW,316,2.0,2.0,31,0.00,,,0.00,Wunderground v.1.15,2013-03-10 16:02:00,
2013-03-10 09:08:00,60.1,30.9,30.31,North,353,1.0,2.0,33,0.00,,,0.00,Wunderground v.1.15,2013-03-10 16:08:00,
2013-03-10 09:14:00,60.5,29.7,30.31,North,1,1.0,2.0,31,0.00,,,0.00,Wunderground v.1.15,2013-03-10 16:14:00,
2013-03-10 09:20:00,60.9,29.2,30.31,ENE,57,1.0,1.0,30,0.00,,,0.00,Wunderground v.1.15,2013-03-10 16:20:00,
2013-03-10 09:26:00,61.3,28.7,30.31,NNW,346,1.0,1.0,29,0.00,,,0.00,Wunderground v.1.15,2013-03-10 16:26:00,
2013-03-10 09:32:00,61.5,28.9,30.31,NW,305,1.0,11.0,29,0.00,,,0.00,Wunderground v.1.15,2013-03-10 16:32:00,
2013-03-10 09:38:00,61.9,28.4,30.31,NNE,22,1.0,11.0,28,0.00,,,0.00,Wunderground v.1.15,2013-03-10 16:38:00,
2013-03-10 09:44:00,62.4,28.8,30.31,ENE,77,1.0,11.0,28,0.00,,,0.00,Wunderground v.1.15,2013-03-10 16:44:00,
2013-03-10 09:50:00,62.9,29.3,30.31,ENE,62,1.0,11.0,28,0.00,,,0.00,Wunderground v.1.15,2013-03-10 16:50:00,
2013-03-10 09:56:00,63.7,30.0,30.31,North,4,1.0,11.0,28,0.00,,,0.00,Wunderground v.1.15,2013-03-10 16:56:00,
2013-03-10 10:02:00,64.3,30.5,30.31,NNE,26,1.0,1.0,28,0.00,,,0.00,Wunderground v.1.15,2013-03-10 17:02:00,
2013-03-10 10:08:00,64.9,29.2,30.31,North,3,1.0,2.0,26,0.00,,,0.00,Wunderground v.1.15,2013-03-10 17:08:00,
2013-03-10 10:14:00,65.5,28.7,30.31,NNW,347,1.0,1.0,25,0.00,,,0.00,Wunderground v.1.15,2013-03-10 17:14:00,
2013-03-10 10:20:00,66.0,28.1,30.31,West,280,1.0,1.0,24,0.00,,,0.00,Wunderground v.1.15,2013-03-10 17:20:00,
2013-03-10 10:26:00,66.6,28.6,30.31,NE,38,2.0,7.0,24,0.00,,,0.00,Wunderground v.1.15,2013-03-10 17:26:00,
2013-03-10 10:32:00,66.8,26.7,30.31,NNW,332,2.0,6.0,22,0.00,,,0.00,Wunderground v.1.15,2013-03-10 17:32:00,
2013-03-10 10:38:00,67.0,24.6,30.31,North,360,3.0,6.0,20,0.00,,,0.00,Wunderground v.1.15,2013-03-10 17:38:00,
2013-03-10 10:44:00,67.5,27.3,30.31,NNW,345,2.0,6.0,22,0.00,,,0.00,Wunderground v.1.15,2013-03-10 17:44:00,
2013-03-10 10:50:00,68.0,26.6,30.31,NW,321,2.0,6.0,21,0.00,,,0.00,Wunderground v.1.15,2013-03-10 17:50:00,
2013-03-10 14:22:00,71.1,38.1,30.23,SSW,211,4.0,8.0,30,0.00,,,0.00,Wunderground v.1.15,2013-03-10 21:22:00,
2013-03-10 14:28:00,70.9,38.7,30.23,SW,236,4.0,8.0,31,0.00,,,0.00,Wunderground v.1.15,2013-03-10 21:28:00,
2013-03-10 18:58:00,59.2,42.1,30.21,SW,228,1.0,6.0,53,0.00,,,0.00,Wunderground v.1.15,2013-03-11 01:58:00,
2013-03-10 19:04:00,58.6,42.0,30.21,SW,236,1.0,2.0,54,0.00,,,0.00,Wunderground v.1.15,2013-03-11 02:04:00,
2013-03-10 21:00:00,50.4,38.3,30.20,SSE,159,0.0,2.0,63,0.00,,,0.00,Wunderground v.1.15,2013-03-11 04:00:00,
2013-03-10 21:02:00,50.3,38.2,30.21,SSE,159,0.0,2.0,63,0.00,,,0.00,Wunderground v.1.15,2013-03-11 04:02:00,
2013-03-10 21:04:00,50.2,38.1,30.20,SSE,160,0.0,2.0,63,0.00,,,0.00,Wunderground v.1.15,2013-03-11 04:04:00,
2013-03-10 21:10:00,49.8,38.5,30.20,SSE,160,0.0,0.0,65,0.00,,,0.00,Wunderground v.1.15,2013-03-11 04:10:00,
2013-03-10 21:16:00,49.6,38.3,30.20,SSE,159,0.0,0.0,65,0.00,,,0.00,Wunderground v.1.15,2013-03-11 04:16:00,
2013-03-10 21:22:00,49.4,38.1,30.21,SSE,159,0.0,0.0,65,0.00,,,0.00,Wunderground v.1.15,2013-03-11 04:22:00,
2013-03-10 21:28:00,49.4,38.1,30.21,SSE,165,0.0,1.0,65,0.00,,,0.00,Wunderground v.1.15,2013-03-11 04:28:00,
2013-03-10 21:34:00,48.9,37.6,30.21,SSE,166,0.0,1.0,65,0.00,,,0.00,Wunderground v.1.15,2013-03-11 04:34:00,
2013-03-10 21:40:00,48.8,37.6,30.21,SE,146,0.0,1.0,65,0.00,,,0.00,Wunderground v.1.15,2013-03-11 04:40:00,
2013-03-10 21:46:00,48.6,37.7,30.21,SSE,156,0.0,1.0,66,0.00,,,0.00,Wunderground v.1.15,2013-03-11 04:46:00,
2013-03-10 21:52:00,48.3,37.5,30.21,SSE,156,0.0,1.0,66,0.00,,,0.00,Wunderground v.1.15,2013-03-11 04:52:00,
2013-03-10 21:58:00,47.9,37.1,30.21,SSE,156,0.0,1.0,66,0.00,,,0.00,Wunderground v.1.15,2013-03-11 04:58:00,
2013-03-10 22:04:00,48.4,37.9,30.21,SSE,156,0.0,0.0,67,0.00,,,0.00,Wunderground v.1.15,2013-03-11 05:04:00,
2013-03-10 22:10:00,48.2,37.8,30.21,SSE,156,0.0,0.0,67,0.00,,,0.00,Wunderground v.1.15,2013-03-11 05:10:00,
2013-03-10 22:16:00,48.5,38.0,30.22,SSE,156,0.0,0.0,67,0.00,,,0.00,Wunderground v.1.15,2013-03-11 05:16:00,
2013-03-10 22:22:00,48.7,38.6,30.22,SSE,156,0.0,0.0,68,0.00,,,0.00,Wunderground v.1.15,2013-03-11 05:22:00,
2013-03-10 22:28:00,48.9,38.8,30.22,SSE,156,0.0,0.0,68,0.00,,,0.00,Wunderground v.1.15,2013-03-11 05:28:00,
2013-03-10 22:34:00,48.8,38.3,30.22,SSE,156,0.0,2.0,67,0.00,,,0.00,Wunderground v.1.15,2013-03-11 05:34:00,
2013-03-10 22:40:00,48.5,38.0,30.22,WSW,238,0.0,2.0,67,0.00,,,0.00,Wunderground v.1.15,2013-03-11 05:40:00,
2013-03-10 22:46:00,47.6,37.6,30.22,WSW,238,0.0,2.0,68,0.00,,,0.00,Wunderground v.1.15,2013-03-11 05:46:00,
2013-03-10 22:52:00,47.0,37.7,30.22,WSW,238,0.0,2.0,70,0.00,,,0.00,Wunderground v.1.15,2013-03-11 05:52:00,
2013-03-10 22:58:00,47.0,38.1,30.22,SSE,155,0.0,2.0,71,0.00,,,0.00,Wunderground v.1.15,2013-03-11 05:58:00,
2013-03-10 23:04:00,47.5,38.6,30.21,SSE,163,0.0,0.0,71,0.00,,,0.00,Wunderground v.1.15,2013-03-11 06:04:00,
2013-03-10 23:10:00,47.4,38.1,30.21,SSE,163,0.0,0.0,70,0.00,,,0.00,Wunderground v.1.15,2013-03-11 06:10:00,
2013-03-10 23:16:00,46.8,37.9,30.21,South,172,0.0,1.0,71,0.00,,,0.00,Wunderground v.1.15,2013-03-11 06:16:00,
2013-03-10 23:22:00,46.2,37.3,30.21,South,172,0.0,0.0,71,0.00,,,0.00,Wunderground v.1.15,2013-03-11 06:22:00,
2013-03-10 23:28:00,45.6,37.4,30.21,SSE,148,0.0,0.0,73,0.00,,,0.00,Wunderground v.1.15,2013-03-11 06:28:00,
2013-03-10 23:34:00,45.3,37.5,30.21,South,180,0.0,0.0,74,0.00,,,0.00,Wunderground v.1.15,2013-03-11 06:34:00,
2013-03-10 23:40:00,45.2,37.7,30.21,South,169,0.0,0.0,75,0.00,,,0.00,Wunderground v.1.15,2013-03-11 06:40:00,
2013-03-10 23:46:00,45.1,37.6,30.21,South,169,0.0,0.0,75,0.00,,,0.00,Wunderground v.1.15,2013-03-11 06:46:00,
2013-03-10 23:52:00,44.9,37.1,30.21,South,169,0.0,0.0,74,0.00,,,0.00,Wunderground v.1.15,2013-03-11 06:52:00,
2013-03-10 23:58:00,44.5,36.7,30.21,South,169,0.0,0.0,74,0.00,,,0.00,Wunderground v.1.15,2013-03-11 06:58:00,